TDRS 6

Last updated on Fri Nov 07 2025 00:02:41 GMT+0000 (Coordinated Universal Time)

1 22314U 93003B 25310.31097260 -.00000293 00000+0 00000+0 0 9999 2 22314 14.1785 358.7022 0010055 203.7786 269.4307 1.00268936120178
UTC large
Height (km)
Speed (km/s)
/
Latitude / Longitude
Inclination (degrees)
Orbital Period (minutes)
Azimuth
Elevation
Range (km)
Doppler Factor

Next 0 passes for location: London (51.5072 / 0.1276)

Sorry there are no passes over London.